Content
SEND FEEDBACK

Daily
Averages
Monthly
Summary
France

LE HAVRE, FRANCE


Home > Europe > France
Elevation: 338 feet     Latitude: 49 31N     Longitude: 000 04E

WEATHER
 
SELECT A DAY
Number of Records: 176,103;   Date Range: 3/4/97 - 7/28/14
 
SHARE

PRINT THIS DATA

[ ← Previous Day ]
WEATHER ALMANAC - JANUARY 14, 2013
[ Next Day → ]
[ °C ]   °F
Weather ElementAverageHighLow
Temperature36.2 °F42.8 °F (8:00 pm)30.2 °F (9:30 am)
Dewpoint31.5 °F39.2 °F (7:00 pm)23 °F (4:00 am)
Humidity83.6 %93 % (9:30 am)65 % (4:00 am)
Barometer29.91 in30.06 in (12:30 am)29.65 in (10:30 pm)
Wind Speed10.6 mph28.8 mph (11:00 pm)
Wind Gust41.4 mph (11:00 pm)
Weather ElementAverage
Visibility5.1 mi
Wind DirectionSSW (188.1 °)

Weather ElementTotal
Precipitation---
Heating Degree Days28.5 (Base 65)
Averaged from 47 records on January 14, 2013
WEATHER CONDITIONS BREAKOUT
WIND DIRECTION BREAKOUT
WEATHER BY HOUR - JANUARY 14, 2013
[ °C ]   °F
Local TimeTemperatureDewpointHumidityBarometerVisibilityWind DirectionWind SpeedGust SpeedPrecipitationEventsConditions
12:30 AM35.6 °F26.6 °F70 %30.06 in6.2 miESE (110°)5.8 mphOvercast
1:00 AM35.6 °F26.6 °F70 %30.06 in6.2 miESE (110°)3.5 mphOvercast
1:30 AM35.6 °F26.6 °F70 %30.06 in6.2 miEast (90°)4.6 mphOvercast
2:00 AM35.6 °F26.6 °F70 %30.06 in6.2 miEast (100°)4.6 mphOvercast
2:30 AM33.8 °F26.6 °F75 %30.06 in6.2 miEast (90°)4.6 mphOvercast
3:00 AM33.8 °F24.8 °F70 %30.06 in6.2 miEast (90°)4.6 mphOvercast
3:30 AM33.8 °F26.6 °F75 %30.06 in6.2 miEast (100°)3.5 mphOvercast
4:00 AM33.8 °F23.0 °F65 %30.06 in6.2 miESE (120°)6.9 mphOvercast
4:30 AM33.8 °F23.0 °F65 %30.06 in6.2 miSE (130°)4.6 mphSnowLight Snow
5:00 AM33.8 °F23.0 °F65 %30.04 in6.2 miSE (140°)3.5 mphSnowLight Snow
5:30 AM32.0 °F24.8 °F75 %30.04 in6.2 miSSE (160°)3.5 mphSnowLight Snow
6:00 AM32.0 °F24.8 °F75 %30.04 in6.2 miSSE (150°)3.5 mphSnowLight Snow
6:30 AM32.0 °F28.4 °F87 %30.04 in1.2 miSSE (160°)4.6 mphSnowLight Snow
7:00 AM32.0 °F28.4 °F87 %30.04 in1.1 miSSE (160°)4.6 mphSnowLight Snow
7:30 AM32.0 °F28.4 °F87 %30.04 in1.1 miSSE (150°)5.8 mphSnowLight Snow
8:00 AM32.0 °F28.4 °F87 %30.04 in3.1 miSSE (150°)5.8 mphSnowLight Snow
8:30 AM32.0 °F28.4 °F87 %30.01 in3.1 miSE (140°)6.9 mphSnowLight Snow
9:00 AM32.0 °F28.4 °F87 %30.01 in1.1 miSSE (150°)6.9 mphSnowLight Snow
9:30 AM30.2 °F28.4 °F93 %30.01 in1.1 miSE (140°)6.9 mphSnowLight Snow
10:00 AM30.2 °F28.4 °F93 %30.01 in6.2 miSSE (150°)10.4 mphSnowLight Snow
10:30 AM32.0 °F28.4 °F87 %30.01 in6.2 miSSE (160°)9.2 mphSnowLight Snow
11:00 AM32.0 °F28.4 °F87 %29.98 in4.3 miSSE (160°)9.2 mphSnowLight Snow
11:30 AM33.8 °F32.0 °F93 %29.98 in6.2 miSouth (180°)10.4 mphOvercast
12:00 PM33.8 °F32.0 °F93 %29.98 in6.2 miSouth (180°)9.2 mphOvercast
12:30 PM35.6 °F33.8 °F93 %29.95 in6.2 miSouth (190°)11.5 mphOvercast
1:00 PM35.6 °F33.8 °F93 %29.95 in6.2 miSouth (190°)8.1 mphOvercast
1:30 PM35.6 °F33.8 °F93 %29.92 in6.2 miSouth (180°)10.4 mphOvercast
2:00 PM37.4 °F33.8 °F87 %29.89 in6.2 miSouth (190°)11.5 mphRainLight Rain
2:30 PM37.4 °F35.6 °F93 %29.86 in5.6 miSSW (200°)10.4 mphOvercast
3:00 PM37.4 °F35.6 °F93 %29.86 in6.2 miSSW (200°)13.8 mphOvercast
3:30 PM39.2 °F35.6 °F87 %29.83 in5.6 miSSW (200°)15.0 mphOvercast
4:00 PM39.2 °F37.4 °F93 %29.83 in5.0 miSSW (200°)15.0 mphRainLight Rain
4:30 PM39.2 °F37.4 °F93 %29.80 in5.0 miSSW (200°)18.4 mphRainLight Rain
5:00 PM39.2 °F37.4 °F93 %29.80 in5.0 miSSW (200°)17.3 mphRainLight Rain
5:30 PM39.2 °F37.4 °F93 %29.77 in3.7 miSSW (210°)17.3 mphRainLight Rain
6:00 PM39.2 °F37.4 °F93 %29.77 in2.8 miSSW (210°)17.3 mphRainLight Rain
6:30 PM39.2 °F37.4 °F93 %29.74 in3.1 miSSW (210°)16.1 mphRainLight Rain
7:00 PM41.0 °F39.2 °F93 %29.74 in6.2 miSW (220°)17.3 mphRainRain
7:30 PM41.0 °F39.2 °F93 %29.71 in3.7 miSW (230°)15.0 mphRainLight Rain
8:00 PM42.8 °F37.4 °F81 %29.71 in6.2 miWest (280°)12.7 mphOvercast
8:30 PM42.8 °F35.6 °F76 %29.71 in6.2 miNNW (330°)15.0 mphMostly Cloudy
9:00 PM42.8 °F35.6 °F76 %29.71 in6.2 miNNW (330°)12.7 mphMostly Cloudy
9:30 PM41.0 °F35.6 °F81 %29.68 in6.2 miNW (310°)18.4 mph33.4 mphRainLight Rain
10:00 PM41.0 °F35.6 °F81 %29.68 in6.2 miNNW (330°)10.4 mphMostly Cloudy
10:30 PM42.8 °F33.8 °F70 %29.65 in6.2 miNW (310°)19.6 mphMostly Cloudy
11:00 PM39.2 °F35.6 °F87 %29.68 in4.3 miNW (320°)28.8 mph41.4 mphMostly Cloudy
11:30 PM39.2 °F33.8 °F81 %29.68 in6.2 miNNW (330°)21.9 mphMostly Cloudy
Hourly data recorded from LFOH, located miles away from Le Havre, France







STORIES FROM OUR PARTNERS